Selawik, AK

8:11 AM AKDT on July 27, 2017 (GMT -0800)
Selawik

Weather History for PASK - November, 2011

Change the Weather History Date:

Tuesday, November 1, 2011

  Actual Average Record
Temperature  
Mean Temperature -2 °F -  
Max Temperature 3 °F 15 °F 33 °F (2003)
Min Temperature -7 °F 8 °F -7 °F (2001)
Degree Days  
Heating Degree Days 67    
Moisture  
Dew Point -5 °F    
Average Humidity 86    
Maximum Humidity 100    
Minimum Humidity 71    
Precipitation  
Precipitation 0.00 in - - ()
Sea Level Pressure  
Sea Level Pressure 30.02 in    
Wind  
Wind Speed 1 mph (NE)    
Max Wind Speed 7 mph    
Max Gust Speed -    
Visibility 5 miles    
Events      
Averages and records for this station are not official NWS values.
T = Trace of Precipitation, MM = Missing Value Source: NWS Daily Summary

Daily Weather History Graph

Daily Weather History Graph

Search for Another Location

Airport or City:

Trip Planner

Search our weather history database for the weather conditions in past years. The results will help you decide how hot, cold, wet, or windy it might be!

Date:

Astronomy

Nov. 01, 2011 Rise Set
Actual Time 10:39 AM AKDT 6:06 PM AKDT
Civil Twilight 9:39 AM AKDT 7:06 PM AKDT
Nautical Twilight 8:36 AM AKDT 8:09 PM AKDT
Astronomical Twilight 7:35 AM AKDT 9:09 PM AKDT
Moon 4:58 PM AKDT (11/1) 11:44 PM AKDT (11/1)
Length of Visible Light 9h 27m
Length of Day
7h 26m
Waxing Crescent, 41% of the Moon is Illuminated
Nov 1
Waxing Crescent
Nov 2
First Quarter
Nov 10
Full
Nov 18
Last Quarter
Nov 24
New

Hourly Weather History & Observations

Time (AKDT) Temp. Windchill Dew Point Humidity Pressure Visibility Wind Dir Wind Speed Gust Speed Precip Events Conditions
12:16 AM 3.2 °F - 1.4 °F 92% 29.94 in 1.0 mi Calm Calm - N/A   Overcast
12:36 AM 3.2 °F - 1.4 °F 92% 29.94 in 0.8 mi Calm Calm - N/A   Overcast
12:56 AM 3.2 °F - -0.4 °F 85% 29.94 in 1.0 mi Calm Calm - N/A   Overcast
1:16 AM 3.2 °F - -0.4 °F 85% 29.94 in 4.0 mi Calm Calm - N/A   Overcast
1:36 AM 3.2 °F - -0.4 °F 85% 29.94 in 5.0 mi Calm Calm - N/A   Overcast
1:56 AM 3.2 °F - -0.4 °F 85% 29.94 in 5.0 mi Calm Calm - N/A   Overcast
2:16 AM 3.2 °F - -0.4 °F 85% 29.95 in 3.0 mi Calm Calm - N/A   Overcast
2:36 AM 3.2 °F - -0.4 °F 85% 29.95 in 5.0 mi Calm Calm - N/A   Overcast
2:56 AM 1.4 °F - -4.0 °F 78% 29.96 in 2.5 mi Calm Calm - N/A   Overcast
3:16 AM 1.4 °F - -0.4 °F 92% 29.96 in 3.0 mi Calm Calm - N/A   Overcast
3:36 AM 1.4 °F - -2.2 °F 85% 29.97 in 1.0 mi Calm Calm - N/A   Overcast
3:56 AM -0.4 °F -8.3 °F -2.2 °F 92% 29.97 in 1.0 mi SSW 3.5 mph - N/A   Overcast
4:16 AM 1.4 °F - -2.2 °F 85% 29.97 in 10.0 mi Calm Calm - N/A   Clear
4:36 AM -0.4 °F -8.3 °F -4.0 °F 85% 29.98 in 10.0 mi WSW 3.5 mph - N/A   Clear
4:56 AM -2.2 °F - -5.8 °F 85% 29.97 in 10.0 mi Calm Calm - N/A   Clear
5:16 AM -2.2 °F - -9.4 °F 71% 29.98 in 10.0 mi Calm Calm - N/A   Clear
5:36 AM -4.0 °F - -5.8 °F 92% 29.98 in - Calm Calm - N/A   Unknown
5:56 AM -5.8 °F - -9.4 °F 84% 29.98 in - Calm Calm - N/A   Unknown
6:16 AM -7.6 °F - -13.0 °F 77% 29.98 in 10.0 mi Calm Calm - N/A   Mostly Cloudy
6:36 AM -5.8 °F - -5.8 °F 100% 29.98 in - Calm Calm - N/A   Mostly Cloudy
6:56 AM -4.0 °F - -7.6 °F 85% 29.99 in 10.0 mi Calm Calm - N/A   Overcast
7:16 AM -2.2 °F -12.5 °F -4.0 °F 92% 29.99 in 10.0 mi North 4.6 mph - N/A   Overcast
7:36 AM -2.2 °F - -5.8 °F 85% 29.99 in 10.0 mi Calm Calm - N/A   Overcast
7:56 AM -0.4 °F - -2.2 °F 92% 29.99 in - Calm Calm - N/A   Unknown
8:16 AM -0.4 °F - -5.8 °F 78% 30.00 in - Calm Calm - N/A   Overcast
8:36 AM -2.2 °F - -5.8 °F 85% 30.00 in - Calm Calm - N/A   Unknown
8:56 AM -2.2 °F -10.4 °F -4.0 °F 92% 30.00 in 10.0 mi NE 3.5 mph - N/A   Mostly Cloudy
9:16 AM -0.4 °F -12.0 °F -5.8 °F 78% 30.00 in 10.0 mi NNE 5.8 mph - N/A   Overcast
9:36 AM -2.2 °F -14.2 °F -4.0 °F 92% 30.01 in 10.0 mi NNE 5.8 mph - N/A   Overcast
9:56 AM -2.2 °F -14.2 °F -5.8 °F 85% 30.00 in 10.0 mi NE 5.8 mph - N/A   Overcast
10:16 AM -4.0 °F -16.3 °F -7.6 °F 85% 30.01 in 10.0 mi NE 5.8 mph - N/A   Overcast
10:36 AM -5.8 °F -19.9 °F -7.6 °F 92% 30.01 in 10.0 mi NE 6.9 mph - N/A   Overcast
11:56 AM -4.0 °F -14.6 °F -5.8 °F 92% 30.03 in 10.0 mi ENE 4.6 mph - N/A   Overcast
12:16 PM -2.2 °F -10.4 °F -5.8 °F 85% 30.03 in 10.0 mi East 3.5 mph - N/A   Overcast
12:36 PM -2.2 °F -12.5 °F -5.8 °F 85% 30.04 in 10.0 mi ENE 4.6 mph - N/A   Overcast
12:56 PM -2.2 °F -12.5 °F -5.8 °F 85% 30.05 in 7.0 mi ENE 4.6 mph - N/A   Overcast
1:16 PM -2.2 °F -12.5 °F -5.8 °F 85% 30.06 in 3.0 mi ENE 4.6 mph - N/A   Overcast
1:36 PM -2.2 °F -12.5 °F -5.8 °F 85% 30.06 in 1.8 mi NE 4.6 mph - N/A   Overcast
1:56 PM -0.4 °F -10.4 °F -4.0 °F 85% 30.06 in 7.0 mi ENE 4.6 mph - N/A   Overcast
2:16 PM -0.4 °F - -4.0 °F 85% 30.07 in 0.2 mi Calm Calm - N/A   Overcast
2:36 PM -0.4 °F - -4.0 °F 85% 30.07 in 0.8 mi Calm Calm - N/A   Overcast
2:56 PM -0.4 °F - -4.0 °F 85% 30.08 in 0.2 mi Calm Calm - N/A   Overcast
3:16 PM -0.4 °F - -2.2 °F 92% 30.08 in 0.5 mi Calm Calm - N/A   Overcast
3:36 PM -0.4 °F - -5.8 °F 78% 30.08 in 0.2 mi Calm Calm - N/A   Overcast
3:56 PM -2.2 °F - -5.8 °F 85% 30.09 in 0.2 mi Calm Calm - N/A   Overcast
4:16 PM -2.2 °F - -4.0 °F 92% 30.10 in 0.5 mi Calm Calm - N/A   Overcast
4:36 PM -2.2 °F - -5.8 °F 85% 30.10 in 1.2 mi Calm Calm - N/A   Overcast
4:56 PM -2.2 °F - -5.8 °F 85% 30.10 in 1.5 mi Calm Calm - N/A   Overcast
5:16 PM -2.2 °F - -5.8 °F 85% 30.11 in 0.5 mi Calm Calm - N/A   Overcast
5:36 PM -2.2 °F - -5.8 °F 85% 30.11 in 0.2 mi Calm Calm - N/A   Overcast
5:56 PM -0.4 °F - -5.8 °F 78% 30.12 in 0.2 mi Calm Calm - N/A   Overcast
6:16 PM -0.4 °F - -4.0 °F 85% 30.13 in 0.2 mi Calm Calm - N/A   Overcast
6:36 PM -2.2 °F - -5.8 °F 85% 30.14 in 0.2 mi Calm Calm - N/A   Overcast
6:56 PM -2.2 °F - -5.8 °F 85% 30.15 in - Calm Calm - N/A   Overcast
7:16 PM -2.2 °F - -5.8 °F 85% 30.15 in 0.5 mi Calm Calm - N/A   Overcast
7:36 PM -2.2 °F - -7.6 °F 78% 30.15 in 0.5 mi Calm Calm - N/A   Overcast
7:56 PM -4.0 °F - -9.4 °F 78% 30.16 in 2.0 mi Calm Calm - N/A   Overcast
8:16 PM -4.0 °F - -5.8 °F 92% 30.17 in 4.0 mi Calm Calm - N/A   Overcast
8:36 PM -5.8 °F - -11.2 °F 77% 30.17 in 10.0 mi Calm Calm - N/A   Overcast
8:56 PM -5.8 °F - -7.6 °F 92% 30.18 in 10.0 mi Calm Calm - N/A   Overcast
9:16 PM -5.8 °F - -7.6 °F 92% 30.18 in 2.0 mi Calm Calm - N/A   Overcast
9:36 PM -5.8 °F - -9.4 °F 84% 30.19 in 1.2 mi Calm Calm - N/A   Overcast
9:56 PM -5.8 °F - -7.6 °F 92% 30.20 in 0.8 mi Calm Calm - N/A   Overcast
10:16 PM -4.0 °F - -7.6 °F 85% 30.21 in 1.2 mi Calm Calm - N/A   Overcast
10:36 PM -5.8 °F - -7.6 °F 92% 30.22 in 0.8 mi Calm Calm - N/A   Overcast
10:56 PM -4.0 °F - -7.6 °F 85% 30.23 in 0.8 mi Calm Calm - N/A   Overcast
11:16 PM -4.0 °F - -7.6 °F 85% 30.23 in 1.0 mi Calm Calm - N/A   Overcast
11:36 PM -4.0 °F -12.4 °F -7.6 °F 85% 30.24 in 1.2 mi North 3.5 mph - N/A   Overcast
11:56 PM -4.0 °F - -7.6 °F 85% 30.24 in 1.2 mi Calm Calm - N/A   Overcast